Regional Weather Roundup
Issued by NWS

Home | Current Version | Previous Version | Text Only | Print | Product List | Glossary Off
Versions: 1 2 3 4 5 6 7 8 9 10 11 12 13 14 15 16 17 18 19 20 21 22 23 24 25 26 27 28 29 30 31 32 33 34 35 36 37 38 39 40 41 42 43 44 45 46 47 48 49 50

000
ASUS43 KDTX 300310
RWRMI
MICHIGAN HOURLY REGIONAL WEATHER ROUNDUP
NATIONAL WEATHER SERVICE DETROIT/PONTIAC MI
1100 PM EDT FRI AUG 29 2014

NOTE: "FAIR" INDICATES FEW OR NO CLOUDS BELOW 12,000 FEET WITH NO
SIGNIFICANT WEATHER AND/OR OBSTRUCTION TO VISIBILITY.

MIZ047>049-052>055-059>063-066>070-074>076-081>083-300400-
SOUTHEAST LOWER MICHIGAN

CITY           SKY/WX    TMP DP  RH WIND       PRES   REMARKS
ADRIAN         CLEAR     69  63  81 SE3       30.04R
ALMA           CLOUDY    70  64  82 SE3       29.97F
ANN ARBOR      PTCLDY    69  61  75 SE3       30.04R
BAD AXE        CLOUDY    67  54  62 S10       30.02F
CARO           CLOUDY    68  56  65 SE8       30.00F
DETROIT CITY   PTCLDY    71  60  68 SE7       30.04F
DETROIT        MOCLDY    69  61  75 E5        30.04F
FLINT          CLOUDY    71  56  58 S8        30.01F
GROSSE ILE     PTCLDY    70  64  83 E5        30.03S
HILLSDALE      PTCLDY    72  67  83 SE7       30.03S
HOWELL         CLOUDY    68  60  75 SE10      30.02S

CITY           SKY/WX    TMP DP  RH WIND       PRES   REMARKS
JACKSON        PTCLDY    70  63  78 SE8       30.02R
LAMBERTVILLE   CLEAR     68  63  83 CALM      30.03S
LANSING        CLOUDY    72  62  71 SE9       29.99F
LAPEER         FAIR      65  56  71 S3        30.03F
MASON          MOCLDY    68  62  79 SE9       30.01S
MONROE         PTCLDY    73  64  73 SE6       30.01S
MT. CLEMENS    PTCLDY    68  61  78 SE7       30.03F
PONTIAC        MOCLDY    69  56  62 SE7       30.04R
PORT HOPE        N/A     68  55  63 S9        30.00S
PORT HURON     PTCLDY    64  59  82 SE3       30.05S
TRI CITIES     CLOUDY    71  55  56 S10       29.99F
TROY           PTCLDY    70  56  62 E3        30.06S
SAGINAW HB     CLOUDY    68  55  64 SE6       29.99S
$$
MIZ043>046-050>051-056>058-064>065-071>073-077>080-300400-
SOUTHWEST LOWER MICHIGAN

CITY           SKY/WX    TMP DP  RH WIND       PRES   REMARKS
BATTLE CREEK   MOCLDY    74  66  76 S9        30.00R
BENTON HARBOR  MOCLDY    75  70  84 SE9       29.94R
BIG RAPIDS     CLOUDY    70  68  93 SE9       29.94F
COLDWATER      PTCLDY    75  66  75 SE5       30.00S
FREMONT        FAIR      70  68  95 SE5       29.93R
HOLLAND        MOCLDY    76  70  82 SE12      29.95R
GRAND RAPIDS   CLOUDY    74  72  93 S12       29.96S
IONIA          FAIR      70  67  91 S8        29.97R
KALAMAZOO      MOCLDY    74  67  78 VRB6      29.99R
LUDINGTON      CLOUDY    74  71  88 S9        29.90R
MARSHALL       PTCLDY    72  65  80 SE3       30.00R
MOUNT PLEASANT CLOUDY    70  64  81 SE5       29.96F
MUSKEGON       PTCLDY    75  69  81 S10       29.93R
SOUTH HAVEN    MOCLDY    76  70  81 SE8       29.94R
$$
MIZ016>042-300400-
NORTHERN LOWER MICHIGAN

CITY           SKY/WX    TMP DP  RH WIND       PRES   REMARKS
ALPENA         MOCLDY    68  59  73 S12       29.95F
BEAVER ISLAND  LGT RAIN  69  67  94 SE9G16    29.88S
BELLAIRE       MOCLDY    71  64  77 S6        29.90S
CADILLAC       CLOUDY    70  66  88 SE9       29.94F
CHARLEVOIX     CLOUDY    71  66  82 S8        29.91F
FRANKFORT      CLOUDY    74  68  79 S13       29.88R
GAYLORD        MOCLDY    66  61  84 S13       29.94F
GRAYLING       MOCLDY    69  64  84 SE6       29.96F
HARBOR SPRINGS LGT RAIN  70  65  83 CALM      29.90F
HOUGHTON LAKE  CLOUDY    69  62  78 S8        29.97F
MANISTEE       CLOUDY    72  66  83 S6        29.90S
OSCODA         MOCLDY    67  57  69 S8        29.98F
PELLSTON       TSTM      69  66  90 SE7       29.90F FOG
ROGERS CITY    MOCLDY    68  63  83 S15G22    29.92F
TRAVERSE CITY  CLOUDY    73  66  78 S6        29.88F
$$
MIZ007>008-015-300400-
EASTERN UPPER MICHIGAN

CITY           SKY/WX    TMP DP  RH WIND       PRES   REMARKS
KINROSS        CLOUDY    63  61  94 SE10      29.89F
MACKINAC ISLAN LGT RAIN  66  64  96 S8G16     29.90R
NEWBERRY       LGT RAIN  66  64  94 S13G22    29.87R
S. S. MARIE    MOCLDY    62  60  93 VRB7      29.90S
MUNISING         N/A     70  66  87 S8        29.79F
$$
MIZ004>006-011>014-085-300400-
CENTRAL UPPER MICHIGAN

CITY           SKY/WX    TMP DP  RH WIND       PRES   REMARKS
MANISTIQUE     CLOUDY    65  64  96 SE7       29.83F
ESCANABA       CLOUDY    68  64  88 SW7       29.82F
MENOMINEE      CLOUDY    73  68  83 SW3       29.82S
SAWYER-GWINN   RAIN      67  65  94 SW9       29.82F
$$
MIZ001>003-009>011-084-300400-
WESTERN UPPER MICHIGAN

CITY           SKY/WX    TMP DP  RH WIND       PRES   REMARKS
IRON MOUNTAIN  LGT RAIN  68  64  87 S8        29.84R FOG
HOUGHTON       CLOUDY    62  60  93 CALM      29.78R FOG
COPPER HARBOR    N/A     64  61  90 CALM      29.76F
$$

ABBREVIATIONS USED IN REMARKS
   TC - TEMPERATURE IN CELSIUS
  WCI - WIND CHILL INDEX
   HX - HEAT INDEX
  VSB - VISIBILITY




USA.gov is the U.S. government's official web portal to all federal, state and local government web resources and services.